Location: Be Tobo
(6.6442°N, 10.6239°W)
Time: 10:16:59
(UTC+00:00)

Daily predictions for brighter satellites

Satellite Brightness Start Highest point End
(mag) Time Altitude Azimuth Time Altitude Azimuth Time Altitude Azimuth
DELTA-4 R/B 4.2 18:35:40 10° WNW 18:39:50 65° NNE 19:00:45 10° E
ATLAS 3B CENTAUR R/B 4.4 18:45:05 10° NW 18:54:07 59° NNE 19:14:08 10° ESE
SMAP 4.4 18:53:56 10° S 18:58:24 47° WSW 19:02:51 10° NNW
Meteor 1-23 Rocket 4.2 18:59:06 10° N 19:04:35 65° E 19:10:05 10° SSE
ATLAS 2AS CENTAUR R/B 4.1 19:02:44 10° SSE 19:07:51 20° ESE 19:13:07 10° ENE
Cosmos 1066 Rocket 4.1 19:02:51 10° N 19:08:14 80° E 19:13:45 10° S
Delta 198 4.3 19:03:00 10° WNW 19:09:13 66° NNE 19:14:21 11° ESE
H-2A R/B 3.7 19:09:13 10° E 19:10:39 11° ENE 19:12:04 10° ENE
Shenzhou-11 Module 2.1 19:11:14 10° WSW 19:13:19 45° NW 19:15:22 10° NNE
MOS 1 Rocket 3.4 19:11:17 10° NNE 19:15:18 41° E 19:19:21 10° S
Sich 1 Rocket 4.0 19:11:32 10° SSE 19:15:39 39° E 19:19:48 10° NNE
ATLAS 2AS CENTAUR RB 2.5 19:14:15 10° SW 19:15:51 14° S 19:17:04 10° SE
Iridium 4 Rocket 3.1 19:12:04 10° S 19:16:26 76° E 19:21:09 10° N
Cosmos 1174 3.6 19:13:48 10° SSW 19:17:19 80° ESE 19:21:41 10° NNE
BLOCK DM-SL R/B 3.8 19:14:18 10° WSW 19:19:13 59° S 19:42:06 17° E
BLOCK DM-SL R/B 3.8 19:14:18 10° WSW 19:19:13 59° S 19:42:04 17° E
BLOCK DM-SL R/B 3.8 19:14:18 10° WSW 19:19:14 59° SSE 19:42:05 17° E
SL-24 R/B 4.0 19:15:42 10° SSE 19:20:04 67° E 19:24:19 10° N
Cosmos 1844 4.4 19:16:49 10° SSE 19:21:51 31° ESE 19:26:49 10° NE
Cosmos 1674 Rocket 3.6 19:18:26 10° N 19:22:52 87° W 19:27:19 10° S
IRS-1C Rocket 4.1 19:18:00 10° SSE 19:23:16 87° WSW 19:28:31 10° NNW
Ariane H10+ 2.6 19:22:42 10° WSW 19:25:12 32° S 19:26:58 19° ESE
Milstar 3 Cent rocket 4.4 19:25:16 10° W 19:33:13 28° NNW 19:38:09 10° NNE
CZ-2C R/B 3.6 19:29:26 10° SE 19:33:48 33° ENE 19:38:22 10° NNE
Cosmos 1844 Rocket 2.7 19:28:26 10° S 19:33:52 56° ESE 19:39:16 10° NNE
ARIANE 5 R/B 2.9 19:18:18 10° W 19:35:41 76° S 19:37:49 25° E
Okean 2 Rocket 3.4 19:31:29 10° SSE 19:35:45 42° E 19:40:01 10° NNE
CZ-2C R/B 3.2 19:31:28 10° NE 19:36:35 36° ESE 19:41:40 10° SSE
Cosmos 1939 Rocket 3.5 19:33:14 10° S 19:37:12 58° W 19:41:13 10° NNW
Helios 1A Rocket 3.4 19:33:15 10° S 19:37:15 61° WSW 19:41:16 10° NNW
SL-16 R/B 2.2 19:31:54 10° NNW 19:37:32 84° WSW 19:43:11 10° SSE
Cosmos 1464 Rocket 4.0 19:32:43 10° SSE 19:38:41 54° E 19:44:36 10° NNE
Okean-O 2.6 19:34:43 10° SSE 19:39:09 89° ENE 19:43:34 10° NNW
Atlas Centaur 2 3.7 19:38:06 10° W 19:44:18 35° SW 19:49:19 10° SSE
CZ-2D R/B 3.8 19:41:46 10° S 19:45:35 60° W 19:49:24 10° NNW
Delta 7925 Rocket 3.5 19:40:42 10° WNW 19:45:36 74° NNE 19:48:33 29° ESE
Meteor 1-12 Rocket 4.3 19:40:17 10° S 19:46:16 73° E 19:52:11 10° N
Cosmos 1300 Rocket 3.4 19:44:29 10° S 19:48:47 64° E 19:53:06 10° NNE
NOAA 15 4.5 19:46:28 10° SSE 19:51:43 82° ENE 19:56:57 10° N
GPS 2-17 Rocket1 4.1 19:47:49 10° W 19:52:13 40° NNW 19:54:35 23° NE
Cosmos 2298 Rocket 4.1 19:47:23 10° SSW 19:52:42 78° WNW 19:58:00 10° N
CSL-04 Debris 4.2 19:48:47 10° SSE 19:54:05 56° ENE 19:59:20 10° N
YAOGAN 1 2.5 19:50:03 10° S 19:54:22 84° WSW 19:58:41 10° NNW
GPS 2-14 Rocket1 4.0 19:51:14 10° W 19:54:34 30° SSW 19:55:47 25° SSE
Cosmos 923 Rocket 3.8 19:51:30 10° N 19:56:41 81° ENE 20:01:53 10° SSE
Ariane H10 3.3 19:46:33 10° W 20:02:44 78° S 20:05:11 40° ESE
Cosmos 1932 4.5 19:57:01 10° N 20:03:08 55° ENE 20:05:12 38° ESE
CSL-04 Rocket 3.5 19:58:24 10° SSE 20:03:41 68° ENE 20:09:01 10° N
BLOCK-DM UPPERSTAGE 4.2 19:59:56 10° WSW 20:05:18 35° S 20:06:05 32° SSE
Centaur AC-119 3.4 20:05:41 10° W 20:09:46 28° NW 20:10:01 27° NNW
ASTRO E2 3.6 20:07:22 10° NW 20:10:20 39° N 20:10:20 39° N
ARIANE 44P R/B 4.0 20:10:27 10° WSW 20:13:15 30° S 20:13:30 30° SSE
Meteor 1-21 4.0 20:09:32 10° N 20:15:07 83° E 20:20:31 11° S
CZ-4 R/B 3.4 20:11:43 10° SSW 20:15:22 30° W 20:19:04 10° NW
Cosmos 2151 Rocket 3.6 20:12:34 10° S 20:16:58 76° W 20:21:22 10° N
Intelsat 5-3 Rocket 4.2 20:14:22 10° NW 20:19:39 58° NNE 20:22:39 43° E
ARIANE 3 DEB 4.3 20:15:52 10° WSW 20:19:55 46° S 20:20:55 43° SSE
Intelsat 5-1 Rocket 4.3 19:58:02 10° WSW 20:20:16 66° NNW 20:24:10 34° NE
Palapa 6 Rocket 3.6 20:19:43 10° WSW 20:22:29 46° W 20:22:29 46° W
Cosmos 1125 Rocket 4.4 20:28:30 10° SSW 20:33:34 48° WNW 20:38:38 10° N
Cosmos 2034 Rocket 4.4 20:29:12 10° SSW 20:35:27 62° W 20:41:44 10° N
NOSS 3-4 (A) 3.8 20:30:52 10° SW 20:36:44 58° WNW 20:39:16 33° N
NOSS 3-4 (C) 3.7 20:30:58 10° SW 20:36:51 59° WNW 20:39:12 35° N
NATO 3D Rocket 4.1 20:34:46 10° WSW 20:38:29 48° W 20:38:29 48° W
Ariane H10+ 4.2 20:34:10 10° WSW 20:42:05 28° SSW 20:42:11 28° SSW
H-2A R/B 3.2 20:49:28 38° WSW 20:49:44 38° WSW 20:54:15 10° NNW
ARGOS 4.4 20:53:38 35° NW 20:53:38 35° NW 20:56:50 10° NNW
ATLAS 2AS CENTAUR R/B 3.6 20:51:06 10° SW 20:58:23 52° WNW 21:04:43 16° N
ARIANE 5 R/B 4.4 20:55:21 10° W 21:18:19 46° SW 21:18:19 46° SW
